Year,Month,Day,Hour,Minute,Value (Times are PST for windspeed in km/hr)
2010,06,13,00,00,0.00
2010,06,13,00,01,0.00
2010,06,13,00,02,0.20
2010,06,13,00,03,0.20
2010,06,13,00,04,0.10
2010,06,13,00,05,0.30
2010,06,13,00,06,0.70
2010,06,13,00,07,1.40
2010,06,13,00,08,1.20
2010,06,13,00,09,1.80
2010,06,13,00,10,2.50
2010,06,13,00,11,3.40
2010,06,13,00,12,0.30
2010,06,13,00,13,0.80
2010,06,13,00,14,3.90
2010,06,13,00,15,0.90
2010,06,13,00,16,0.10
2010,06,13,00,17,1.20
2010,06,13,00,18,0.30
2010,06,13,00,19,0.10
2010,06,13,00,20,0.20
2010,06,13,00,21,0.70
2010,06,13,00,22,1.50
2010,06,13,00,23,0.80
2010,06,13,00,24,0.90
2010,06,13,00,25,1.00
2010,06,13,00,26,0.20
2010,06,13,00,27,0.20
2010,06,13,00,28,1.40
2010,06,13,00,29,2.40
2010,06,13,00,30,5.30
2010,06,13,00,31,4.40
2010,06,13,00,32,3.60
2010,06,13,00,33,6.40
2010,06,13,00,34,6.70
2010,06,13,00,35,5.20
2010,06,13,00,36,3.70
2010,06,13,00,37,2.30
2010,06,13,00,38,4.00
2010,06,13,00,39,3.60
2010,06,13,00,40,1.80
2010,06,13,00,41,2.30
2010,06,13,00,42,5.60
2010,06,13,00,43,6.10
2010,06,13,00,44,6.10
2010,06,13,00,45,6.10
2010,06,13,00,46,5.00
2010,06,13,00,47,4.20
2010,06,13,00,48,2.30
2010,06,13,00,49,2.30
2010,06,13,00,50,0.20
2010,06,13,00,51,1.80
2010,06,13,00,52,0.80
2010,06,13,00,53,0.90
2010,06,13,00,54,2.20
2010,06,13,00,55,0.90
2010,06,13,00,56,2.10
2010,06,13,00,57,1.50
2010,06,13,00,58,2.10
2010,06,13,00,59,3.40
2010,06,13,01,00,0.80
2010,06,13,01,01,4.40
2010,06,13,01,02,1.90
2010,06,13,01,03,0.10
2010,06,13,01,04,0.00
2010,06,13,01,05,0.80
2010,06,13,01,06,0.90
2010,06,13,01,07,0.70
2010,06,13,01,08,1.00
2010,06,13,01,09,2.60
2010,06,13,01,10,2.20
2010,06,13,01,11,3.40
2010,06,13,01,12,0.40
2010,06,13,01,13,1.80
2010,06,13,01,14,1.90
2010,06,13,01,15,0.10
2010,06,13,01,16,0.00
2010,06,13,01,17,0.00
2010,06,13,01,18,0.30
2010,06,13,01,19,2.50
2010,06,13,01,20,1.80
2010,06,13,01,21,5.10
2010,06,13,01,22,2.00
2010,06,13,01,23,1.50
2010,06,13,01,24,3.10
2010,06,13,01,25,4.50
2010,06,13,01,26,0.40
2010,06,13,01,27,5.30
2010,06,13,01,28,2.90
2010,06,13,01,29,1.00
2010,06,13,01,30,1.20
2010,06,13,01,31,1.90
2010,06,13,01,32,1.10
2010,06,13,01,33,4.90
2010,06,13,01,34,4.00
2010,06,13,01,35,1.50
2010,06,13,01,36,2.80
2010,06,13,01,37,2.00
2010,06,13,01,38,0.90
2010,06,13,01,39,0.70
2010,06,13,01,40,2.80
2010,06,13,01,41,3.00
2010,06,13,01,42,2.70
2010,06,13,01,43,2.90
2010,06,13,01,44,1.60
2010,06,13,01,45,1.60
2010,06,13,01,46,0.50
2010,06,13,01,47,0.10
2010,06,13,01,48,1.40
2010,06,13,01,49,4.50
2010,06,13,01,50,1.80
2010,06,13,01,51,5.00
2010,06,13,01,52,2.00
2010,06,13,01,53,0.30
2010,06,13,01,54,0.40
2010,06,13,01,55,0.70
2010,06,13,01,56,0.00
2010,06,13,01,57,2.10
2010,06,13,01,58,1.00
2010,06,13,01,59,1.90
2010,06,13,02,00,1.50
2010,06,13,02,01,2.20
2010,06,13,02,02,0.70
2010,06,13,02,03,0.10
2010,06,13,02,04,0.10
2010,06,13,02,05,0.30
2010,06,13,02,06,2.20
2010,06,13,02,07,2.90
2010,06,13,02,08,0.70
2010,06,13,02,09,1.30
2010,06,13,02,10,3.50
2010,06,13,02,11,3.40
2010,06,13,02,12,0.20
2010,06,13,02,13,0.80
2010,06,13,02,14,0.10
2010,06,13,02,15,0.00
2010,06,13,02,16,0.00
2010,06,13,02,17,0.10
2010,06,13,02,18,0.00
2010,06,13,02,19,0.40
2010,06,13,02,20,1.50
2010,06,13,02,21,2.60
2010,06,13,02,22,1.80
2010,06,13,02,23,2.40
2010,06,13,02,24,1.10
2010,06,13,02,25,2.10
2010,06,13,02,26,3.10
2010,06,13,02,27,1.80
2010,06,13,02,28,1.30
2010,06,13,02,29,1.80
2010,06,13,02,30,1.90
2010,06,13,02,31,2.10
2010,06,13,02,32,2.10
2010,06,13,02,33,1.70
2010,06,13,02,34,0.70
2010,06,13,02,35,1.00
2010,06,13,02,36,1.20
2010,06,13,02,37,0.70
2010,06,13,02,38,0.60
2010,06,13,02,39,0.10
2010,06,13,02,40,0.50
2010,06,13,02,41,1.20
2010,06,13,02,42,0.00
2010,06,13,02,43,0.10
2010,06,13,02,44,2.20
2010,06,13,02,45,2.30
2010,06,13,02,46,1.20
2010,06,13,02,47,1.40
2010,06,13,02,48,1.60
2010,06,13,02,49,0.40
2010,06,13,02,50,0.90
2010,06,13,02,51,0.90
2010,06,13,02,52,1.40
2010,06,13,02,53,0.60
2010,06,13,02,54,1.90
2010,06,13,02,55,0.40
2010,06,13,02,56,1.40
2010,06,13,02,57,1.40
2010,06,13,02,58,0.40
2010,06,13,02,59,1.50
2010,06,13,03,00,1.00
2010,06,13,03,01,0.50
2010,06,13,03,02,0.40
2010,06,13,03,03,0.40
2010,06,13,03,04,2.40
2010,06,13,03,05,0.40
2010,06,13,03,06,1.80
2010,06,13,03,07,4.80
2010,06,13,03,08,2.30
2010,06,13,03,09,0.20
2010,06,13,03,10,1.00
2010,06,13,03,11,2.30
2010,06,13,03,12,1.50
2010,06,13,03,13,1.50
2010,06,13,03,14,3.30
2010,06,13,03,15,1.50
2010,06,13,03,16,2.00
2010,06,13,03,17,1.30
2010,06,13,03,18,1.50
2010,06,13,03,19,1.00
2010,06,13,03,20,0.90
2010,06,13,03,21,5.40
2010,06,13,03,22,4.20
2010,06,13,03,23,3.70
2010,06,13,03,24,5.00
2010,06,13,03,25,4.30
2010,06,13,03,26,5.40
2010,06,13,03,27,5.50
2010,06,13,03,28,5.30
2010,06,13,03,29,3.80
2010,06,13,03,30,6.20
2010,06,13,03,31,4.90
2010,06,13,03,32,5.70
2010,06,13,03,33,2.80
2010,06,13,03,34,4.50
2010,06,13,03,35,8.40
2010,06,13,03,36,5.60
2010,06,13,03,37,8.30
2010,06,13,03,38,5.80
2010,06,13,03,39,6.20
2010,06,13,03,40,7.00
2010,06,13,03,41,6.60
2010,06,13,03,42,6.10
2010,06,13,03,43,7.60
2010,06,13,03,44,7.30
2010,06,13,03,45,9.40
2010,06,13,03,46,8.50
2010,06,13,03,47,6.10
2010,06,13,03,48,5.50
2010,06,13,03,49,4.50
2010,06,13,03,50,7.60
2010,06,13,03,51,3.00
2010,06,13,03,52,1.70
2010,06,13,03,53,1.40
2010,06,13,03,54,0.10
2010,06,13,03,55,2.60
2010,06,13,03,56,0.60
2010,06,13,03,57,0.60
2010,06,13,03,58,0.60
2010,06,13,03,59,0.00
2010,06,13,04,00,0.00
2010,06,13,04,01,2.90
2010,06,13,04,02,4.70
2010,06,13,04,03,3.70
2010,06,13,04,04,2.30
2010,06,13,04,05,1.40
2010,06,13,04,06,3.40
2010,06,13,04,07,5.50
2010,06,13,04,08,2.30
2010,06,13,04,09,3.50
2010,06,13,04,10,1.00
2010,06,13,04,11,0.00
2010,06,13,04,12,0.10
2010,06,13,04,13,0.00
2010,06,13,04,14,0.70
2010,06,13,04,15,0.70
2010,06,13,04,16,1.20
2010,06,13,04,17,0.20
2010,06,13,04,18,1.10
2010,06,13,04,19,4.70
2010,06,13,04,20,1.10
2010,06,13,04,21,2.40
2010,06,13,04,22,3.00
2010,06,13,04,23,2.00
2010,06,13,04,24,0.50
2010,06,13,04,25,1.50
2010,06,13,04,26,1.00
2010,06,13,04,27,1.60
2010,06,13,04,28,2.80
2010,06,13,04,29,1.60
2010,06,13,04,30,2.70
2010,06,13,04,31,2.20
2010,06,13,04,32,1.70
2010,06,13,04,33,2.00
2010,06,13,04,34,0.70
2010,06,13,04,35,1.00
2010,06,13,04,36,0.60
2010,06,13,04,37,1.90
2010,06,13,04,38,3.60
2010,06,13,04,39,4.50
2010,06,13,04,40,2.40
2010,06,13,04,41,4.20
2010,06,13,04,42,1.40
2010,06,13,04,43,3.50
2010,06,13,04,44,5.60
2010,06,13,04,45,7.00
2010,06,13,04,46,6.40
2010,06,13,04,47,3.30
2010,06,13,04,48,3.90
2010,06,13,04,49,4.80
2010,06,13,04,50,1.80
2010,06,13,04,51,2.30
2010,06,13,04,52,5.60
2010,06,13,04,53,3.70
2010,06,13,04,54,5.60
2010,06,13,04,55,5.30
2010,06,13,04,56,3.90
2010,06,13,04,57,1.20
2010,06,13,04,58,2.80
2010,06,13,04,59,6.60
2010,06,13,05,00,9.20
2010,06,13,05,01,6.20
2010,06,13,05,02,2.70
2010,06,13,05,03,10.50
2010,06,13,05,04,6.90
2010,06,13,05,05,6.70
2010,06,13,05,06,4.50
2010,06,13,05,07,3.90
2010,06,13,05,08,7.20
2010,06,13,05,09,5.60
2010,06,13,05,10,6.90
2010,06,13,05,11,0.90
2010,06,13,05,12,2.60
2010,06,13,05,13,2.20
2010,06,13,05,14,9.20
2010,06,13,05,15,3.70
2010,06,13,05,16,3.40
2010,06,13,05,17,4.20
2010,06,13,05,18,7.10
2010,06,13,05,19,7.60
2010,06,13,05,20,5.50
2010,06,13,05,21,3.60
2010,06,13,05,22,7.60
2010,06,13,05,23,3.90
2010,06,13,05,24,4.90
2010,06,13,05,25,5.60
2010,06,13,05,26,9.00
2010,06,13,05,27,8.80
2010,06,13,05,28,6.50
2010,06,13,05,29,3.50
2010,06,13,05,30,4.50
2010,06,13,05,31,6.20
2010,06,13,05,32,5.70
2010,06,13,05,33,6.90
2010,06,13,05,34,9.20
2010,06,13,05,35,3.40
2010,06,13,05,36,3.00
2010,06,13,05,37,4.20
2010,06,13,05,38,1.70
2010,06,13,05,39,7.40
2010,06,13,05,40,11.00
2010,06,13,05,41,7.60
2010,06,13,05,42,5.60
2010,06,13,05,43,2.50
2010,06,13,05,44,4.90
2010,06,13,05,45,8.20
2010,06,13,05,46,7.70
2010,06,13,05,47,12.70
2010,06,13,05,48,3.80
2010,06,13,05,49,1.80
2010,06,13,05,50,1.30
2010,06,13,05,51,2.60
2010,06,13,05,52,8.20
2010,06,13,05,53,9.60
2010,06,13,05,54,4.10
2010,06,13,05,55,4.50
2010,06,13,05,56,1.10
2010,06,13,05,57,0.60
2010,06,13,05,58,1.20
2010,06,13,05,59,2.10
2010,06,13,06,00,2.10
2010,06,13,06,01,5.80
2010,06,13,06,02,5.60
2010,06,13,06,03,5.30
2010,06,13,06,04,3.70
2010,06,13,06,05,2.30
2010,06,13,06,06,1.60
2010,06,13,06,07,2.50
2010,06,13,06,08,2.30
2010,06,13,06,09,2.90
2010,06,13,06,10,0.50
2010,06,13,06,11,3.10
2010,06,13,06,12,4.00
2010,06,13,06,13,5.60
2010,06,13,06,14,5.30
2010,06,13,06,15,6.10
2010,06,13,06,16,0.20
2010,06,13,06,17,2.60
2010,06,13,06,18,3.70
2010,06,13,06,19,4.00
2010,06,13,06,20,5.90
2010,06,13,06,21,2.10
2010,06,13,06,22,1.80
2010,06,13,06,23,2.70
2010,06,13,06,24,5.70
2010,06,13,06,25,5.40
2010,06,13,06,26,6.90
2010,06,13,06,27,3.80
2010,06,13,06,28,3.10
2010,06,13,06,29,1.70
2010,06,13,06,30,2.90
2010,06,13,06,31,4.70
2010,06,13,06,32,5.40
2010,06,13,06,33,2.80
2010,06,13,06,34,1.80
2010,06,13,06,35,1.90
2010,06,13,06,36,4.00
2010,06,13,06,37,2.70
2010,06,13,06,38,5.30
2010,06,13,06,39,1.00
2010,06,13,06,40,7.80
2010,06,13,06,41,4.50
2010,06,13,06,42,0.60
2010,06,13,06,43,2.50
2010,06,13,06,44,2.80
2010,06,13,06,45,4.00
2010,06,13,06,46,0.10
2010,06,13,06,47,0.00
2010,06,13,06,48,0.40
2010,06,13,06,49,0.30
2010,06,13,06,50,3.40
2010,06,13,06,51,0.80
2010,06,13,06,52,1.90
2010,06,13,06,53,2.30
2010,06,13,06,54,0.80
2010,06,13,06,55,0.10
2010,06,13,06,56,0.00
2010,06,13,06,57,0.10
2010,06,13,06,58,2.60
2010,06,13,06,59,3.90
2010,06,13,07,00,0.40
2010,06,13,07,01,0.70
2010,06,13,07,02,2.60
2010,06,13,07,03,2.60
2010,06,13,07,04,10.60
2010,06,13,07,05,7.90
2010,06,13,07,06,7.50
2010,06,13,07,07,5.90
2010,06,13,07,08,4.80
2010,06,13,07,09,3.50
2010,06,13,07,10,2.10
2010,06,13,07,11,2.20
2010,06,13,07,12,4.50
2010,06,13,07,13,7.90
2010,06,13,07,14,7.80
2010,06,13,07,15,8.50
2010,06,13,07,16,9.00
2010,06,13,07,17,5.30
2010,06,13,07,18,8.00
2010,06,13,07,19,5.70
2010,06,13,07,20,4.50
2010,06,13,07,21,4.00
2010,06,13,07,22,2.70
2010,06,13,07,23,3.70
2010,06,13,07,24,2.60
2010,06,13,07,25,3.70
2010,06,13,07,26,0.70
2010,06,13,07,27,0.70
2010,06,13,07,28,0.10
2010,06,13,07,29,0.70
2010,06,13,07,30,0.40
2010,06,13,07,31,2.70
2010,06,13,07,32,1.60
2010,06,13,07,33,0.10
2010,06,13,07,34,0.30
2010,06,13,07,35,2.90
2010,06,13,07,36,0.40
2010,06,13,07,37,5.10
2010,06,13,07,38,3.00
2010,06,13,07,39,4.80
2010,06,13,07,40,2.30
2010,06,13,07,41,4.40
2010,06,13,07,42,3.40
2010,06,13,07,43,3.20
2010,06,13,07,44,6.10
2010,06,13,07,45,4.80
2010,06,13,07,46,4.60
2010,06,13,07,47,1.20
2010,06,13,07,48,3.10
2010,06,13,07,49,3.80
2010,06,13,07,50,2.30
2010,06,13,07,51,2.80
2010,06,13,07,52,1.20
2010,06,13,07,53,4.60
2010,06,13,07,54,4.00
2010,06,13,07,55,4.50
2010,06,13,07,56,4.10
2010,06,13,07,57,0.90
2010,06,13,07,58,0.70
2010,06,13,07,59,2.80
2010,06,13,08,00,3.20
2010,06,13,08,01,3.10
2010,06,13,08,02,1.00
2010,06,13,08,03,5.00
2010,06,13,08,04,3.90
2010,06,13,08,05,4.40
2010,06,13,08,06,1.60
2010,06,13,08,07,2.10
2010,06,13,08,08,2.20
2010,06,13,08,09,2.80
2010,06,13,08,10,3.80
2010,06,13,08,11,1.20
2010,06,13,08,12,0.10
2010,06,13,08,13,0.30
2010,06,13,08,14,0.80
2010,06,13,08,15,1.00
2010,06,13,08,16,0.40
2010,06,13,08,17,2.30
2010,06,13,08,18,4.90
2010,06,13,08,19,6.30
2010,06,13,08,20,3.50
2010,06,13,08,21,1.20
2010,06,13,08,22,4.30
2010,06,13,08,23,4.50
2010,06,13,08,24,5.30
2010,06,13,08,25,3.20
2010,06,13,08,26,2.80
2010,06,13,08,27,4.10
2010,06,13,08,28,4.40
2010,06,13,08,29,6.10
2010,06,13,08,30,3.50
2010,06,13,08,31,4.20
2010,06,13,08,32,0.80
2010,06,13,08,33,1.60
2010,06,13,08,34,3.90
2010,06,13,08,35,5.60
2010,06,13,08,36,2.10
2010,06,13,08,37,3.40
2010,06,13,08,38,4.00
2010,06,13,08,39,2.10
2010,06,13,08,40,1.60
2010,06,13,08,41,2.90
2010,06,13,08,42,1.40
2010,06,13,08,43,1.20
2010,06,13,08,44,10.30
2010,06,13,08,45,7.80
2010,06,13,08,46,6.40
2010,06,13,08,47,6.00
2010,06,13,08,48,9.80
2010,06,13,08,49,9.10
2010,06,13,08,50,5.20
2010,06,13,08,51,1.50
2010,06,13,08,52,4.60
2010,06,13,08,53,10.30
2010,06,13,08,54,7.50
2010,06,13,08,55,7.00
2010,06,13,08,56,6.70
2010,06,13,08,57,7.20
2010,06,13,08,58,7.00
2010,06,13,08,59,6.60
2010,06,13,09,00,2.00
2010,06,13,09,01,8.40
2010,06,13,09,02,8.10
2010,06,13,09,03,11.00
2010,06,13,09,04,10.30
2010,06,13,09,05,4.10
2010,06,13,09,06,7.10
2010,06,13,09,07,10.70
2010,06,13,09,08,10.70
2010,06,13,09,09,6.70
2010,06,13,09,10,7.00
2010,06,13,09,11,6.10
2010,06,13,09,12,7.10
2010,06,13,09,13,10.50
2010,06,13,09,14,11.50
2010,06,13,09,15,4.70
2010,06,13,09,16,4.80
2010,06,13,09,17,9.40
2010,06,13,09,18,7.80
2010,06,13,09,19,2.50
2010,06,13,09,20,11.50
2010,06,13,09,21,7.40
2010,06,13,09,22,7.20
2010,06,13,09,23,8.80
2010,06,13,09,24,5.50
2010,06,13,09,25,9.10
2010,06,13,09,26,9.40
2010,06,13,09,27,6.10
2010,06,13,09,28,4.20
2010,06,13,09,29,5.90
2010,06,13,09,30,6.10
2010,06,13,09,31,8.90
2010,06,13,09,32,11.00
2010,06,13,09,33,10.20
2010,06,13,09,34,7.40
2010,06,13,09,35,6.40
2010,06,13,09,36,3.00
2010,06,13,09,37,9.10
2010,06,13,09,38,10.30
2010,06,13,09,39,11.70
2010,06,13,09,40,11.10
2010,06,13,09,41,5.90
2010,06,13,09,42,6.80
2010,06,13,09,43,9.10
2010,06,13,09,44,9.00
2010,06,13,09,45,4.80
2010,06,13,09,46,10.50
2010,06,13,09,47,7.70
2010,06,13,09,48,5.60
2010,06,13,09,49,7.30
2010,06,13,09,50,7.10
2010,06,13,09,51,4.60
2010,06,13,09,52,3.50
2010,06,13,09,53,0.00
2010,06,13,09,54,0.00
2010,06,13,09,55,0.00
2010,06,13,09,56,0.00
2010,06,13,09,57,0.00
2010,06,13,09,58,0.00
2010,06,13,09,59,0.00
2010,06,13,10,00,6.80
2010,06,13,10,01,9.10
2010,06,13,10,02,12.20
2010,06,13,10,03,8.30
2010,06,13,10,04,6.00
2010,06,13,10,05,5.10
2010,06,13,10,06,4.20
2010,06,13,10,07,0.90
2010,06,13,10,08,4.50
2010,06,13,10,09,6.20
2010,06,13,10,10,5.70
2010,06,13,10,11,1.50
2010,06,13,10,12,3.80
2010,06,13,10,13,4.50
2010,06,13,10,14,4.80
2010,06,13,10,15,0.80
2010,06,13,10,16,5.60
2010,06,13,10,17,7.90
2010,06,13,10,18,8.30
2010,06,13,10,19,6.40
2010,06,13,10,20,5.30
2010,06,13,10,21,9.00
2010,06,13,10,22,10.20
2010,06,13,10,23,10.20
2010,06,13,10,24,6.90
2010,06,13,10,25,10.40
2010,06,13,10,26,12.90
2010,06,13,10,27,12.20
2010,06,13,10,28,9.00
2010,06,13,10,29,9.80
2010,06,13,10,30,8.60
2010,06,13,10,31,5.40
2010,06,13,10,32,9.30
2010,06,13,10,33,8.70
2010,06,13,10,34,5.00
2010,06,13,10,35,9.40
2010,06,13,10,36,8.80
2010,06,13,10,37,7.30
2010,06,13,10,38,5.30
2010,06,13,10,39,4.80
2010,06,13,10,40,9.10
2010,06,13,10,41,9.10
2010,06,13,10,42,5.20
2010,06,13,10,43,4.80
2010,06,13,10,44,4.80
2010,06,13,10,45,0.30
2010,06,13,10,46,1.70
2010,06,13,10,47,3.20
2010,06,13,10,48,5.10
2010,06,13,10,49,6.10
2010,06,13,10,50,2.30
2010,06,13,10,51,5.60
2010,06,13,10,52,6.60
2010,06,13,10,53,5.60
2010,06,13,10,54,6.30
2010,06,13,10,55,5.60
2010,06,13,10,56,10.70
2010,06,13,10,57,2.10
2010,06,13,10,58,11.50
2010,06,13,10,59,7.40
2010,06,13,11,00,9.40
2010,06,13,11,01,9.10
2010,06,13,11,02,8.20
2010,06,13,11,03,9.70
2010,06,13,11,04,8.60
2010,06,13,11,05,8.10
2010,06,13,11,06,8.70
2010,06,13,11,07,13.80
2010,06,13,11,08,13.60
2010,06,13,11,09,17.80
2010,06,13,11,10,18.30
2010,06,13,11,11,12.30
2010,06,13,11,12,11.10
2010,06,13,11,13,9.50
2010,06,13,11,14,16.20
2010,06,13,11,15,18.40
2010,06,13,11,16,14.90
2010,06,13,11,17,7.70
2010,06,13,11,18,14.90
2010,06,13,11,19,13.80
2010,06,13,11,20,14.90
2010,06,13,11,21,15.40
2010,06,13,11,22,8.80
2010,06,13,11,23,11.30
2010,06,13,11,24,10.70
2010,06,13,11,25,13.70
2010,06,13,11,26,15.10
2010,06,13,11,27,15.00
2010,06,13,11,28,15.30
2010,06,13,11,29,17.70
2010,06,13,11,30,10.50
2010,06,13,11,31,13.80
2010,06,13,11,32,10.10
2010,06,13,11,33,16.50
2010,06,13,11,34,12.60
2010,06,13,11,35,15.70
2010,06,13,11,36,8.50
2010,06,13,11,37,10.50
2010,06,13,11,38,13.20
2010,06,13,11,39,10.00
2010,06,13,11,40,9.30
2010,06,13,11,41,7.10
2010,06,13,11,42,8.50
2010,06,13,11,43,9.40
2010,06,13,11,44,11.60
2010,06,13,11,45,6.80
2010,06,13,11,46,11.40
2010,06,13,11,47,4.50
2010,06,13,11,48,8.90
2010,06,13,11,49,9.90
2010,06,13,11,50,7.80
2010,06,13,11,51,12.10
2010,06,13,11,52,12.50
2010,06,13,11,53,9.50
2010,06,13,11,54,14.00
2010,06,13,11,55,9.60
2010,06,13,11,56,12.00
2010,06,13,11,57,9.00
2010,06,13,11,58,7.90
2010,06,13,11,59,14.90
2010,06,13,12,00,13.00
2010,06,13,12,01,13.00
2010,06,13,12,02,15.60
2010,06,13,12,03,13.80
2010,06,13,12,04,10.00
2010,06,13,12,05,10.00
2010,06,13,12,06,11.90
2010,06,13,12,07,11.30
2010,06,13,12,08,14.20
2010,06,13,12,09,17.50
2010,06,13,12,10,12.50
2010,06,13,12,11,13.40
2010,06,13,12,12,18.90
2010,06,13,12,13,13.20
2010,06,13,12,14,20.40
2010,06,13,12,15,15.40
2010,06,13,12,16,21.10
2010,06,13,12,17,18.50
2010,06,13,12,18,17.40
2010,06,13,12,19,16.10
2010,06,13,12,20,9.00
2010,06,13,12,21,13.20
2010,06,13,12,22,7.20
2010,06,13,12,23,9.80
2010,06,13,12,24,19.80
2010,06,13,12,25,12.40
2010,06,13,12,26,10.30
2010,06,13,12,27,11.80
2010,06,13,12,28,10.80
2010,06,13,12,29,7.70
2010,06,13,12,30,14.50
2010,06,13,12,31,9.60
2010,06,13,12,32,9.00
2010,06,13,12,33,10.10
2010,06,13,12,34,11.10
2010,06,13,12,35,9.80
2010,06,13,12,36,11.00
2010,06,13,12,37,4.20
2010,06,13,12,38,6.00
2010,06,13,12,39,19.70
2010,06,13,12,40,15.30
2010,06,13,12,41,17.30
2010,06,13,12,42,7.50
2010,06,13,12,43,12.20
2010,06,13,12,44,16.70
2010,06,13,12,45,10.90
2010,06,13,12,46,16.80
2010,06,13,12,47,9.90
2010,06,13,12,48,12.30
2010,06,13,12,49,11.50
2010,06,13,12,50,18.10
2010,06,13,12,51,13.00
2010,06,13,12,52,13.20
2010,06,13,12,53,7.80
2010,06,13,12,54,12.70
2010,06,13,12,55,11.00
2010,06,13,12,56,9.30
2010,06,13,12,57,10.90
2010,06,13,12,58,4.50
2010,06,13,12,59,11.00
2010,06,13,13,00,9.20
2010,06,13,13,01,7.40
2010,06,13,13,02,7.50
2010,06,13,13,03,11.00
2010,06,13,13,04,10.00
2010,06,13,13,05,9.70
2010,06,13,13,06,9.30
2010,06,13,13,07,9.40
2010,06,13,13,08,3.90
2010,06,13,13,09,10.50
2010,06,13,13,10,14.40
2010,06,13,13,11,10.00
2010,06,13,13,12,11.10
2010,06,13,13,13,12.30
2010,06,13,13,14,16.40
2010,06,13,13,15,10.20
2010,06,13,13,16,8.30
2010,06,13,13,17,11.80
2010,06,13,13,18,11.30
2010,06,13,13,19,8.80
2010,06,13,13,20,10.90
2010,06,13,13,21,10.50
2010,06,13,13,22,11.00
2010,06,13,13,23,10.00
2010,06,13,13,24,8.90
2010,06,13,13,25,7.20
2010,06,13,13,26,10.90
2010,06,13,13,27,9.10
2010,06,13,13,28,12.80
2010,06,13,13,29,5.40
2010,06,13,13,30,8.30
2010,06,13,13,31,9.60
2010,06,13,13,32,12.70
2010,06,13,13,33,10.90
2010,06,13,13,34,8.10
2010,06,13,13,35,16.00
2010,06,13,13,36,13.00
2010,06,13,13,37,6.90
2010,06,13,13,38,7.20
2010,06,13,13,39,8.90
2010,06,13,13,40,15.10
2010,06,13,13,41,8.60
2010,06,13,13,42,9.90
2010,06,13,13,43,10.20
2010,06,13,13,44,9.10
2010,06,13,13,45,11.80
2010,06,13,13,46,13.80
2010,06,13,13,47,15.60
2010,06,13,13,48,14.90
2010,06,13,13,49,17.60
2010,06,13,13,50,14.10
2010,06,13,13,51,13.60
2010,06,13,13,52,16.90
2010,06,13,13,53,9.90
2010,06,13,13,54,10.00
2010,06,13,13,55,13.50
2010,06,13,13,56,15.90
2010,06,13,13,57,15.10
2010,06,13,13,58,12.90
2010,06,13,13,59,12.90
2010,06,13,14,00,13.50
2010,06,13,14,01,16.80
2010,06,13,14,02,15.80
2010,06,13,14,03,19.70
2010,06,13,14,04,14.80
2010,06,13,14,05,12.10
2010,06,13,14,06,13.40
2010,06,13,14,07,11.20
2010,06,13,14,08,20.60
2010,06,13,14,09,16.30
2010,06,13,14,10,17.90
2010,06,13,14,11,16.50
2010,06,13,14,12,17.90
2010,06,13,14,13,11.90
2010,06,13,14,14,11.00
2010,06,13,14,15,10.20
2010,06,13,14,16,16.30
2010,06,13,14,17,14.90
2010,06,13,14,18,12.00
2010,06,13,14,19,9.30
2010,06,13,14,20,10.50
2010,06,13,14,21,10.80
2010,06,13,14,22,16.30
2010,06,13,14,23,16.80
2010,06,13,14,24,18.40
2010,06,13,14,25,12.30
2010,06,13,14,26,10.50
2010,06,13,14,27,12.10
2010,06,13,14,28,18.70
2010,06,13,14,29,11.10
2010,06,13,14,30,15.90
2010,06,13,14,31,14.30
2010,06,13,14,32,16.60
2010,06,13,14,33,17.50
2010,06,13,14,34,14.50
2010,06,13,14,35,13.50
2010,06,13,14,36,24.00
2010,06,13,14,37,16.20
2010,06,13,14,38,12.90
2010,06,13,14,39,7.30
2010,06,13,14,40,17.50
2010,06,13,14,41,17.50
2010,06,13,14,42,17.80
2010,06,13,14,43,15.50
2010,06,13,14,44,13.50
2010,06,13,14,45,7.10
2010,06,13,14,46,9.80
2010,06,13,14,47,13.20
2010,06,13,14,48,9.60
2010,06,13,14,49,8.80
2010,06,13,14,50,13.50
2010,06,13,14,51,13.50
2010,06,13,14,52,12.40
2010,06,13,14,53,12.90
2010,06,13,14,54,13.20
2010,06,13,14,55,20.10
2010,06,13,14,56,16.50
2010,06,13,14,57,16.50
2010,06,13,14,58,16.20
2010,06,13,14,59,13.20
2010,06,13,15,00,11.90
2010,06,13,15,01,15.40
2010,06,13,15,02,13.30
2010,06,13,15,03,14.30
2010,06,13,15,04,12.90
2010,06,13,15,05,9.90
2010,06,13,15,06,16.00
2010,06,13,15,07,14.30
2010,06,13,15,08,15.60
2010,06,13,15,09,14.30
2010,06,13,15,10,17.20
2010,06,13,15,11,20.70
2010,06,13,15,12,18.80
2010,06,13,15,13,12.40
2010,06,13,15,14,17.60
2010,06,13,15,15,19.80
2010,06,13,15,16,18.10
2010,06,13,15,17,15.60
2010,06,13,15,18,13.80
2010,06,13,15,19,23.50
2010,06,13,15,20,16.00
2010,06,13,15,21,19.70
2010,06,13,15,22,22.50
2010,06,13,15,23,20.70
2010,06,13,15,24,15.10
2010,06,13,15,25,12.60
2010,06,13,15,26,14.90
2010,06,13,15,27,17.50
2010,06,13,15,28,13.40
2010,06,13,15,29,18.10
2010,06,13,15,30,17.20
2010,06,13,15,31,9.70
2010,06,13,15,32,5.80
2010,06,13,15,33,18.10
2010,06,13,15,34,17.60
2010,06,13,15,35,10.10
2010,06,13,15,36,7.90
2010,06,13,15,37,17.00
2010,06,13,15,38,16.10
2010,06,13,15,39,14.50
2010,06,13,15,40,15.20
2010,06,13,15,41,15.50
2010,06,13,15,42,22.40
2010,06,13,15,43,13.80
2010,06,13,15,44,14.00
2010,06,13,15,45,15.30
2010,06,13,15,46,8.00
2010,06,13,15,47,8.70
2010,06,13,15,48,8.90
2010,06,13,15,49,13.90
2010,06,13,15,50,16.60
2010,06,13,15,51,12.50
2010,06,13,15,52,15.20
2010,06,13,15,53,15.40
2010,06,13,15,54,15.40
2010,06,13,15,55,17.00
2010,06,13,15,56,16.70
2010,06,13,15,57,11.90
2010,06,13,15,58,11.30
2010,06,13,15,59,20.90
2010,06,13,16,00,10.50
2010,06,13,16,01,15.70
2010,06,13,16,02,17.90
2010,06,13,16,03,18.50
2010,06,13,16,04,18.80
2010,06,13,16,05,18.00
2010,06,13,16,06,12.70
2010,06,13,16,07,16.20
2010,06,13,16,08,11.90
2010,06,13,16,09,10.90
2010,06,13,16,10,15.70
2010,06,13,16,11,12.20
2010,06,13,16,12,17.60
2010,06,13,16,13,10.40
2010,06,13,16,14,8.20
2010,06,13,16,15,6.60
2010,06,13,16,16,10.00
2010,06,13,16,17,17.00
2010,06,13,16,18,8.00
2010,06,13,16,19,9.30
2010,06,13,16,20,6.90
2010,06,13,16,21,8.00
2010,06,13,16,22,15.10
2010,06,13,16,23,14.80
2010,06,13,16,24,12.20
2010,06,13,16,25,13.20
2010,06,13,16,26,12.40
2010,06,13,16,27,12.10
2010,06,13,16,28,11.30
2010,06,13,16,29,17.90
2010,06,13,16,30,18.70
2010,06,13,16,31,12.10
2010,06,13,16,32,13.80
2010,06,13,16,33,14.80
2010,06,13,16,34,12.80
2010,06,13,16,35,10.40
2010,06,13,16,36,14.30
2010,06,13,16,37,10.80
2010,06,13,16,38,7.80
2010,06,13,16,39,14.80
2010,06,13,16,40,6.40
2010,06,13,16,41,13.30
2010,06,13,16,42,9.10
2010,06,13,16,43,15.60
2010,06,13,16,44,8.80
2010,06,13,16,45,9.70
2010,06,13,16,46,2.80
2010,06,13,16,47,10.50
2010,06,13,16,48,7.30
2010,06,13,16,49,14.40
2010,06,13,16,50,13.00
2010,06,13,16,51,9.70
2010,06,13,16,52,15.30
2010,06,13,16,53,5.60
2010,06,13,16,54,7.50
2010,06,13,16,55,6.70
2010,06,13,16,56,5.90
2010,06,13,16,57,8.60
2010,06,13,16,58,7.60
2010,06,13,16,59,4.80
2010,06,13,17,00,11.10
2010,06,13,17,01,13.00
2010,06,13,17,02,9.70
2010,06,13,17,03,14.30
2010,06,13,17,04,11.50
2010,06,13,17,05,16.70
2010,06,13,17,06,14.70
2010,06,13,17,07,10.20
2010,06,13,17,08,11.60
2010,06,13,17,09,17.10
2010,06,13,17,10,12.20
2010,06,13,17,11,8.30
2010,06,13,17,12,10.60
2010,06,13,17,13,10.60
2010,06,13,17,14,15.90
2010,06,13,17,15,15.30
2010,06,13,17,16,8.10
2010,06,13,17,17,12.90
2010,06,13,17,18,10.00
2010,06,13,17,19,11.00
2010,06,13,17,20,14.70
2010,06,13,17,21,9.30
2010,06,13,17,22,15.20
2010,06,13,17,23,9.90
2010,06,13,17,24,14.60
2010,06,13,17,25,14.60
2010,06,13,17,26,15.40
2010,06,13,17,27,13.40
2010,06,13,17,28,16.20
2010,06,13,17,29,15.80
2010,06,13,17,30,13.20
2010,06,13,17,31,24.40
2010,06,13,17,32,14.40
2010,06,13,17,33,14.30
2010,06,13,17,34,15.30
2010,06,13,17,35,9.40
2010,06,13,17,36,16.80
2010,06,13,17,37,16.20
2010,06,13,17,38,12.60
2010,06,13,17,39,10.80
2010,06,13,17,40,17.60
2010,06,13,17,41,14.30
2010,06,13,17,42,15.20
2010,06,13,17,43,12.20
2010,06,13,17,44,22.80
2010,06,13,17,45,16.00
2010,06,13,17,46,15.40
2010,06,13,17,47,6.10
2010,06,13,17,48,15.00
2010,06,13,17,49,8.80
2010,06,13,17,50,16.20
2010,06,13,17,51,18.20